リニア彗星

C/2015 Y1 ( LINEAR )

English version
Home page
Updated on May 22, 2017

---------------------------------------------------------------------

・ プロフィール

発見日 2015年12月16日
発見光度 18.3等
発見者 LINEAR survey (Space Surveillance Telescope, Atom Peak, White Sands Missile Range, NM, USA)

・ 写真集

・ 軌道要素

Epoch 2016 May 12.0 TT = JDT 2457520.5
T 2016 May 15.17616 TT                                  MPCW
q   2.5140745            (2000.0)            P               Q
z  +0.0034158      Peri.   24.70822     -0.74489513     +0.09553188
 +/-0.0000015      Node   135.77700     +0.33540675     -0.80192058
e   0.9914125      Incl.   71.21619     +0.57674392     +0.58974320
From 550 observations 2015 Dec. 16-2017 Apr. 20, mean residual 0".6.

・ 光度変化

        m1 = 4.5 + 5 logΔ + 25.0 log r

---------------------------------------------------------------------

軌道要素はM.P.E.C. 2017-J52に掲載されたものです。
光度グラフはComet for Windowsで作成したものです。

---------------------------------------------------------------------

Copyright(C) Seiichi Yoshida (comet@aerith.net). All rights reserved.